[[{"header":{"parameterUnit":"m.s-1","parameterCategory":1,"la1":30.2991,"la2":30.254,"lo1":-89.0895,"lo2":-89.0444,"dy":0.0017,"dx":0.0017,"nx":28,"ny":28,"refTime":"2026-01-09T09:00:00:Z","depth":0,"parameterNumber":2,"parameterNumberName":"U-component_of_WINDS"},"data":[0,0,0,0,0,0,0,0,0,0,0,0,0,0,0,0,0,0,0,0,0,0,0,0,0,0,0,0,0,0,0,0,0,0,0,0,0,0,0,0,0,0,0,0,0,0,0,0,0,0,0,0,0,0,0,0,0,0,1.9934,1.9934,0,1.9976,1.9976,1.9977,1.999,1.9989,1.9989,1.9989,2.0031,2.0032,2.0033,0,0,0,0,0,0,0,0,0,0,0,0,0,1.9865,1.9866,1.9934,1.9934,1.9935,1.9976,1.9976,1.9977,1.999,1.9989,1.9989,1.9989,2.003,2.0032,2.0033,0,0,0,0,0,0,0,0,0,0,0,0,0,1.9899,1.9866,1.9934,1.9946,1.9948,1.9976,1.9976,1.9977,1.999,1.9989,1.9989,1.9989,2.003,2.0032,2.0034,2.0052,0,0,2.004,2.0041,0,0,0,0,0,0,0,0,1.9897,1.9902,1.9944,1.9945,1.9947,1.9977,1.9967,2.0002,1.999,1.9974,1.9989,1.9989,2.0013,2.0016,2.0025,2.0054,2.0056,2.004,2.0041,2.0042,2.0042,0,0,0,0,0,0,0,1.9895,1.99,1.995,1.9944,1.9946,1.995,1.9954,1.9974,1.9995,1.9975,1.9976,1.9981,2.0014,2.0023,2.0026,2.0056,2.004,2.0042,2.0043,2.0043,2.0104,2.0105,0,0,0,0,0,0,1.9891,1.9898,1.9949,1.9952,1.9921,1.9951,1.9956,1.9968,1.9994,1.9998,1.9981,1.9981,2.002,2.0024,2.0028,2.0052,2.0042,2.0044,2.0045,2.0104,2.0105,2.0105,0,0,0,0,0,0,1.9889,1.9895,1.9947,1.9925,1.9932,1.9953,1.9966,1.9969,1.9978,1.9999,2.0003,1.9987,2.002,2.0025,2.0046,2.0053,2.0045,2.0046,2.0103,2.0104,2.0105,2.01,0,0,0,0,0,0,1.9887,1.9894,1.9901,1.9925,1.9933,1.9965,1.9966,1.997,1.9981,1.9982,2.0005,2.0009,2.002,2.0043,2.0048,2.0056,2.0048,2.0103,2.0104,2.0105,2.0099,2.01,2.0101,0,0,0,0,0,1.9885,1.9897,1.9902,1.9908,1.9942,1.9966,1.997,1.9983,1.9982,1.9989,2.0003,2.0008,2.0052,2.0045,2.0051,2.0059,2.0102,2.0104,2.0105,2.0099,2.01,2.0101,0,0,0,0,0,0,1.9873,1.9901,1.9906,1.9927,1.9944,1.9968,1.9977,1.9984,2.0001,2.0001,2.0016,2.0021,2.0042,2.0053,2.0045,2.008,2.0077,2.008,2.0071,2.0072,2.0073,2.007,2.0049,0,0,0,0,0,1.9873,1.9889,1.9913,1.9929,1.9938,1.9956,1.9967,1.9976,1.9994,2.0001,2.0016,2.0033,2.0051,2.0062,2.008,2.0101,2.0107,2.011,2.0111,2.0111,2.0113,2.0126,2.0128,2.0108,2.0108,2.0108,0,0,1.9873,1.989,1.9899,1.9928,1.9942,1.9959,1.9962,1.9979,1.9993,2.0003,2.0025,2.0037,2.0057,2.0079,2.009,2.0089,2.012,2.0113,2.0113,2.0114,2.0128,2.0129,2.0131,2.0109,2.0109,2.0109,0,0,1.9881,1.9896,1.9912,1.9927,1.9949,1.9961,1.9965,1.9988,1.9997,2.0019,2.0028,2.0044,2.0074,2.0089,2.01,2.0117,2.0122,2.0122,2.0126,2.0139,2.014,2.0142,2.0148,2.015,2.0124,2.0124,2.0124,0,1.9878,1.9904,1.9919,1.9937,1.9949,1.9961,1.9978,1.9991,2.0017,2.0026,2.0025,2.0065,2.0079,2.0105,2.011,2.0118,2.0124,2.0119,2.0139,2.0141,2.0142,2.0149,2.0151,2.0124,2.0124,2.0124,2.0124,0,1.99,1.9918,1.9928,1.9955,1.9968,1.9985,2.0003,2.0015,2.0024,2.0036,2.006,2.0078,2.01,2.0107,2.0114,2.0135,2.0134,2.0136,2.0134,2.0144,2.015,2.0153,2.0123,2.0123,2.0123,2.0124,0,0,1.99,1.9936,1.994,1.9953,1.9979,1.9993,2.0011,2.0034,2.0044,2.0063,2.0079,2.0105,2.0108,2.0121,2.0131,2.0142,2.0156,2.0143,2.0144,2.0145,2.018,2.0178,2.0181,2.016,2.016,2.0161,2.0179,0,1.9912,1.9945,1.996,1.9987,2.0004,2.0017,2.0033,2.0051,2.0064,2.0081,2.0095,2.0114,2.0116,2.0124,2.0136,2.0151,2.0163,2.015,2.0175,2.0176,2.0169,2.0184,2.0182,2.0198,2.0181,2.0182,2.0182,0,1.993,1.995,1.9978,2.0004,2.0012,2.0026,2.0049,2.0065,2.0086,2.0095,2.0111,2.0121,2.0141,2.0139,2.0167,2.0158,2.017,2.0179,2.018,2.0182,2.0179,2.0187,2.0203,2.0205,2.0186,2.0186,2.0185,0,1.9929,1.9962,1.9984,1.9995,2.0025,2.0035,2.0048,2.0069,2.0082,2.0102,2.0111,2.0133,2.0145,2.0162,2.0178,2.0174,2.0205,2.0204,2.0213,2.0213,2.0219,2.0218,2.0237,2.0226,2.0226,2.0226,2.0226,0,1.994,1.9957,1.9984,1.9997,2.0017,2.0035,2.0054,2.0068,2.0087,2.0104,2.0116,2.0131,2.0151,2.017,2.0182,2.0205,2.021,2.0218,2.0221,2.0216,2.0215,2.0224,2.0223,2.0227,2.0226,2.0226,2.0226,0,1.9941,1.996,1.9984,2.0012,2.0019,2.0033,2.0057,2.007,2.0085,2.0106,2.0112,2.0134,2.0156,2.0174,2.0203,2.0212,2.0235,2.0239,2.0228,2.023,2.0238,2.0237,2.0263,2.0267,2.0254,2.0254,2.0254,0,1.9948,1.9961,1.9991,2.0003,2.0016,2.0036,2.005,2.0068,2.0082,2.0109,2.012,2.0143,2.0163,2.0198,2.0217,2.0239,2.0244,2.0251,2.0247,2.0243,2.0244,2.0243,2.0245,2.0251,2.0251,2.0251,2.0251,0,1.9957,1.9966,1.9985,2.0009,2.0026,2.0045,2.0064,2.0074,2.0096,2.0111,2.0135,2.015,2.018,2.0204,2.0229,2.0243,2.0251,2.0253,2.0256,2.0252,2.0245,2.0249,2.0229,2.0252,2.0252,2.0252,2.0252,2.0252,1.9961,1.9974,1.9997,2.0019,2.0036,2.0055,2.007,2.0087,2.0106,2.0133,2.0143,2.0167,2.019,2.0224,2.0239,2.0258,2.0259,2.0264,2.0265,2.0266,2.0266,2.0243,2.0263,2.0263,2.0263,2.0263,2.0263,0,1.9971,1.9987,2.0007,2.0035,2.0053,2.006,2.0082,2.0097,2.0118,2.0139,2.0158,2.0186,2.0209,2.0231,2.0256,2.0267,2.0272,2.0273,2.0272,2.0275,2.0263,2.0258,2.0269,2.0269,2.0269,2.0269,2.0269,2.0269,1.9978,2.0002,2.0014,2.0046,2.0062,2.0086,2.0098,2.0116,2.0133,2.0163,2.0183,2.0197,2.0219,2.0245,2.0267,2.0273,2.0282,2.0282,2.0289,2.0277,2.0276,2.0275,2.027,2.0284,2.0284,2.0299,2.0299,2.03]},{"header":{"parameterUnit":"m.s-1","parameterCategory":1,"la1":30.2991,"la2":30.254,"lo1":-89.0895,"lo2":-89.0444,"dy":0.0017,"dx":0.0017,"nx":28,"ny":28,"refTime":"2026-01-09T09:00:00:Z","depth":0,"parameterNumber":3,"parameterNumberName":"V-component_of_WINDS"},"data":[0,0,0,0,0,0,0,0,0,0,0,0,0,0,0,0,0,0,0,0,0,0,0,0,0,0,0,0,0,0,0,0,0,0,0,0,0,0,0,0,0,0,0,0,0,0,0,0,0,0,0,0,0,0,0,0,0,0,-8.1504,-8.1506,0,-8.1667,-8.1669,-8.167,-8.1616,-8.1612,-8.1609,-8.1605,-8.1765,-8.1772,-8.178,0,0,0,0,0,0,0,0,0,0,0,0,0,-8.1142,-8.1149,-8.1504,-8.1506,-8.1508,-8.1666,-8.1669,-8.1671,-8.1616,-8.1612,-8.1608,-8.1604,-8.1763,-8.1771,-8.178,0,0,0,0,0,0,0,0,0,0,0,0,0,-8.1302,-8.1152,-8.1504,-8.15,-8.1502,-8.1666,-8.1669,-8.1671,-8.1617,-8.1612,-8.1607,-8.1602,-8.176,-8.1771,-8.1782,-8.1957,0,0,-8.1816,-8.1821,0,0,0,0,0,0,0,0,-8.1293,-8.1315,-8.1499,-8.1501,-8.1503,-8.1616,-8.16,-8.1767,-8.1619,-8.1573,-8.1605,-8.1599,-8.1719,-8.1733,-8.1775,-8.1965,-8.1972,-8.1817,-8.1824,-8.1829,-8.1832,0,0,0,0,0,0,0,-8.1282,-8.1308,-8.1568,-8.1501,-8.1504,-8.1489,-8.1506,-8.1631,-8.1673,-8.1577,-8.1573,-8.1593,-8.1719,-8.1765,-8.1779,-8.1974,-8.1817,-8.1827,-8.1834,-8.1838,-8.2319,-8.2324,0,0,0,0,0,0,-8.127,-8.1299,-8.1563,-8.1573,-8.1383,-8.15,-8.1519,-8.1585,-8.1672,-8.1681,-8.1598,-8.159,-8.1748,-8.1766,-8.1784,-8.1998,-8.1829,-8.184,-8.1846,-8.2313,-8.232,-8.2326,0,0,0,0,0,0,-8.1263,-8.1294,-8.1556,-8.1435,-8.1467,-8.1512,-8.1586,-8.1591,-8.1636,-8.1688,-8.1695,-8.1637,-8.1744,-8.1768,-8.1916,-8.2002,-8.1845,-8.1855,-8.2306,-8.2315,-8.2323,-8.2425,0,0,0,0,0,0,-8.1253,-8.1292,-8.136,-8.1437,-8.1474,-8.1687,-8.1592,-8.1598,-8.1656,-8.1648,-8.1727,-8.1734,-8.1742,-8.1899,-8.1927,-8.2015,-8.1864,-8.2298,-8.231,-8.232,-8.2414,-8.2436,-8.2455,0,0,0,0,0,-8.124,-8.138,-8.1364,-8.1396,-8.156,-8.1692,-8.1713,-8.1721,-8.1664,-8.1732,-8.1766,-8.1732,-8.1988,-8.1915,-8.1946,-8.2038,-8.2293,-8.2307,-8.232,-8.2405,-8.2432,-8.2455,0,0,0,0,0,0,-8.1309,-8.139,-8.1373,-8.1542,-8.1611,-8.1683,-8.1769,-8.1749,-8.1834,-8.1822,-8.1826,-8.1845,-8.1997,-8.2032,-8.1949,-8.2214,-8.2132,-8.2152,-8.2186,-8.2212,-8.2232,-8.2221,-8.1873,0,0,0,0,0,-8.1344,-8.1446,-8.1511,-8.1654,-8.169,-8.1724,-8.1782,-8.1782,-8.1853,-8.1881,-8.1925,-8.1994,-8.209,-8.2153,-8.2244,-8.2419,-8.2436,-8.2498,-8.2518,-8.2535,-8.2553,-8.265,-8.2679,-8.2371,-8.2371,-8.237,0,0,-8.1417,-8.1474,-8.1538,-8.167,-8.1723,-8.1828,-8.1749,-8.1862,-8.194,-8.1897,-8.2041,-8.2076,-8.2152,-8.2316,-8.2389,-8.2349,-8.2642,-8.2552,-8.2565,-8.2574,-8.2667,-8.2696,-8.2722,-8.238,-8.2378,-8.2377,0,0,-8.1605,-8.1658,-8.1785,-8.1841,-8.1924,-8.1946,-8.1977,-8.2053,-8.2076,-8.222,-8.2192,-8.2283,-8.2448,-8.2505,-8.2555,-8.2768,-8.274,-8.2797,-8.2905,-8.3,-8.3024,-8.3045,-8.3123,-8.315,-8.2814,-8.2814,-8.2815,0,-8.1684,-8.1843,-8.1851,-8.1969,-8.2028,-8.1998,-8.2127,-8.218,-8.2288,-8.2329,-8.2283,-8.2492,-8.2541,-8.2718,-8.2771,-8.2812,-8.2847,-8.2788,-8.302,-8.3042,-8.3062,-8.3136,-8.3165,-8.2821,-8.282,-8.282,-8.2819,0,-8.1938,-8.2048,-8.2141,-8.225,-8.2319,-8.2441,-8.2467,-8.2537,-8.2532,-8.2559,-8.2707,-8.2766,-8.287,-8.2911,-8.2906,-8.3089,-8.3062,-8.3018,-8.2935,-8.3098,-8.3167,-8.3196,-8.283,-8.2828,-8.2826,-8.2824,0,0,-8.2171,-8.2286,-8.232,-8.237,-8.2462,-8.2546,-8.2667,-8.2772,-8.2832,-8.2908,-8.3009,-8.3152,-8.3113,-8.3171,-8.3172,-8.3255,-8.3422,-8.3201,-8.3203,-8.3242,-8.3629,-8.3662,-8.3694,-8.3405,-8.341,-8.3414,-8.3623,0,-8.2367,-8.2583,-8.2596,-8.2791,-8.2894,-8.2868,-8.2974,-8.3041,-8.307,-8.316,-8.3191,-8.3293,-8.3233,-8.3268,-8.335,-8.3385,-8.35,-8.337,-8.3499,-8.3503,-8.3482,-8.373,-8.3765,-8.3959,-8.365,-8.3654,-8.3658,0,-8.2624,-8.2712,-8.2919,-8.2999,-8.3042,-8.3137,-8.3236,-8.3323,-8.3398,-8.3413,-8.348,-8.347,-8.3594,-8.3507,-8.3678,-8.3589,-8.3642,-8.3668,-8.3676,-8.3688,-8.3591,-8.3751,-8.4021,-8.405,-8.37,-8.3697,-8.3694,0,-8.2776,-8.2946,-8.3092,-8.3135,-8.3231,-8.3299,-8.3342,-8.3413,-8.3476,-8.3561,-8.3602,-8.3699,-8.3753,-8.3828,-8.3845,-8.378,-8.4016,-8.393,-8.4032,-8.4032,-8.4083,-8.408,-8.4367,-8.4116,-8.4116,-8.4115,-8.4115,0,-8.2994,-8.3122,-8.3162,-8.3252,-8.3394,-8.3408,-8.3548,-8.3586,-8.365,-8.3746,-8.3728,-8.3819,-8.3835,-8.3929,-8.3942,-8.4083,-8.4106,-8.4122,-8.4124,-8.4124,-8.4123,-8.416,-8.4147,-8.4123,-8.4121,-8.412,-8.4118,0,-8.3187,-8.3219,-8.3378,-8.3457,-8.348,-8.3582,-8.3649,-8.3735,-8.3763,-8.3886,-8.3915,-8.3958,-8.4068,-8.4093,-8.4222,-8.4231,-8.4398,-8.4386,-8.4374,-8.4373,-8.4474,-8.4465,-8.4796,-8.484,-8.456,-8.4562,-8.4565,0,-8.3325,-8.3423,-8.3515,-8.358,-8.3627,-8.373,-8.3796,-8.3813,-8.3882,-8.3977,-8.4052,-8.4161,-8.4249,-8.4425,-8.4467,-8.4567,-8.4558,-8.4667,-8.4572,-8.457,-8.4561,-8.4556,-8.4566,-8.4685,-8.4688,-8.469,-8.4692,0,-8.3566,-8.3578,-8.3674,-8.3778,-8.3857,-8.3938,-8.4016,-8.4069,-8.4097,-8.4175,-8.4289,-8.4358,-8.4492,-8.46,-8.4701,-8.4742,-8.4723,-8.4722,-8.4751,-8.4753,-8.4742,-8.4751,-8.4424,-8.4714,-8.4712,-8.471,-8.4709,-8.4708,-8.3736,-8.3824,-8.3903,-8.4012,-8.4073,-8.4146,-8.4232,-8.4273,-8.4369,-8.4482,-8.4486,-8.461,-8.4685,-8.4819,-8.4867,-8.4964,-8.493,-8.4972,-8.4982,-8.4993,-8.5003,-8.4727,-8.4982,-8.4981,-8.4981,-8.498,-8.498,0,-8.3978,-8.4029,-8.4129,-8.424,-8.4326,-8.4302,-8.4387,-8.446,-8.4571,-8.4644,-8.4732,-8.4864,-8.497,-8.5022,-8.5126,-8.5194,-8.5188,-8.5221,-8.5216,-8.5227,-8.5026,-8.4992,-8.5225,-8.5225,-8.5225,-8.5224,-8.5224,-8.5224,-8.4114,-8.4261,-8.4283,-8.4461,-8.451,-8.4635,-8.4686,-8.4754,-8.4812,-8.4962,-8.5051,-8.5085,-8.515,-8.5259,-8.5355,-8.5367,-8.5407,-8.5445,-8.5453,-8.5265,-8.524,-8.5217,-8.5184,-8.5454,-8.5454,-8.5646,-8.5648,-8.5649]}]]